Вернуться в каталог

COSMOS 1275 DEB

LostPO
NORAD 42127·DEBRIS·🇷🇺 Russia

Запущен Jun 4, 1981 с Plesetsk Cosmodrome

Loading…

Ближайшие Пролёты (ближайшие 24 часа)

TLE

УстаревшееSource: Space-Track

Эпоха: Oct 8, 2024, 11:45 UTC

1 42127U 81053QP  24282.48987596  .00017679  00000-0  87488-2 0  9994
2 42127  82.8335 181.3772 0034441  48.2400 131.8716 14.16864391524540

Отслеживайте COSMOS 1275 DEB в реальном времени с AllMySat

Download on the App Store